| time (UTC) | temp F | wind direction | speed MPH | gust MPH | rain 1hr in | rain 24hr in | rain mn in | humidity % | barometer mb |
| 20260510033238 | 72 | 203 | 0.0 | 0.0 | 0.00 | 0.00 | 0.00 | 63 | 1008.7 |
| 20260510032734 | 72 | 203 | 0.0 | 0.0 | 0.00 | 0.00 | 0.00 | 62 | 1008.6 |
| 20260510032230 | 73 | 203 | 0.0 | 0.0 | 0.00 | 0.00 | 0.00 | 61 | 1008.8 |
| 20260510031725 | 73 | 204 | 1.0 | 1.0 | 0.00 | 0.00 | 0.00 | 60 | 1008.7 |
| 20260510031222 | 73 | 203 | 2.0 | 3.0 | 0.00 | 0.00 | 0.00 | 60 | 1008.6 |
| 20260510030721 | 73 | 207 | 2.0 | 3.0 | 0.00 | 0.00 | 0.00 | 60 | 1008.6 |
| 20260510030219 | 73 | 200 | 1.0 | 1.0 | 0.00 | 0.00 | 0.00 | 60 | 1008.4 |
| 20260510025716 | 73 | 202 | 2.0 | 1.0 | 0.00 | 0.00 | 0.00 | 60 | 1008.5 |
| 20260510025213 | 73 | 199 | 2.0 | 3.0 | 0.00 | 0.00 | 0.00 | 60 | 1008.3 |
| 20260510024710 | 74 | 194 | 2.0 | 3.0 | 0.00 | 0.00 | 0.00 | 59 | 1008.3 |
| 20260510024207 | 74 | 171 | 2.0 | 1.0 | 0.00 | 0.00 | 0.00 | 58 | 1008.5 |
| 20260510023702 | 75 | 162 | 0.0 | 0.0 | 0.00 | 0.00 | 0.00 | 57 | 1008.3 |
| 20260510023159 | 75 | 162 | 1.0 | 1.0 | 0.00 | 0.00 | 0.00 | 57 | 1008.5 |
| 20260510022655 | 76 | 176 | 0.0 | 0.0 | 0.00 | 0.00 | 0.00 | 56 | 1008.3 |
| 20260510022150 | 76 | 176 | 0.0 | 0.0 | 0.00 | 0.00 | 0.00 | 54 | 1008.4 |
| 20260510021640 | 77 | 175 | 0.0 | 0.0 | 0.00 | 0.00 | 0.00 | 54 | 1008.3 |
| 20260510021137 | 77 | 169 | 0.0 | 0.0 | 0.00 | 0.00 | 0.00 | 53 | 1008.2 |
| 20260510020632 | 78 | 169 | 0.0 | 0.0 | 0.00 | 0.00 | 0.00 | 52 | 1008.0 |
| 20260510020127 | 78 | 168 | 2.0 | 3.0 | 0.00 | 0.00 | 0.00 | 51 | 1008.1 |
| 20260510015623 | 79 | 177 | 1.0 | 1.0 | 0.00 | 0.00 | 0.00 | 50 | 1008.0 |
| 20260510015120 | 79 | 162 | 3.0 | 4.0 | 0.00 | 0.00 | 0.00 | 50 | 1007.6 |
| 20260510014616 | 80 | 159 | 3.0 | 4.0 | 0.00 | 0.00 | 0.00 | 49 | 1007.7 |
| 20260510014114 | 80 | 174 | 4.0 | 4.0 | 0.00 | 0.00 | 0.00 | 48 | 1007.6 |
| 20260510013613 | 80 | 164 | 1.0 | 1.0 | 0.00 | 0.00 | 0.00 | 48 | 1007.7 |
| 20260510013109 | 81 | 179 | 3.0 | 4.0 | 0.00 | 0.00 | 0.00 | 46 | 1007.7 |
| 20260510012608 | 82 | 172 | 2.0 | 3.0 | 0.00 | 0.00 | 0.00 | 45 | 1007.6 |
| 20260510012105 | 83 | 173 | 6.0 | 7.0 | 0.00 | 0.00 | 0.00 | 43 | 1007.5 |
| 20260510011604 | 83 | 162 | 8.0 | 8.0 | 0.00 | 0.00 | 0.00 | 42 | 1007.5 |
| 20260510011101 | 84 | 169 | 4.0 | 6.0 | 0.00 | 0.00 | 0.00 | 41 | 1007.2 |
| 20260510010557 | 84 | 174 | 5.0 | 6.0 | 0.00 | 0.00 | 0.00 | 41 | 1007.3 |
| 20260510010055 | 85 | 164 | 5.0 | 6.0 | 0.00 | 0.00 | 0.00 | 40 | 1007.3 |
| 20260510005550 | 85 | 155 | 5.0 | 6.0 | 0.00 | 0.00 | 0.00 | 39 | 1007.2 |
| 20260510005048 | 86 | 172 | 6.0 | 7.0 | 0.00 | 0.00 | 0.00 | 38 | 1007.2 |
| 20260510004546 | 86 | 170 | 7.0 | 7.0 | 0.00 | 0.00 | 0.00 | 38 | 1007.2 |
| 20260510004043 | 87 | 162 | 6.0 | 8.0 | 0.00 | 0.00 | 0.00 | 37 | 1007.2 |
| 20260510003540 | 87 | 165 | 2.0 | 3.0 | 0.00 | 0.00 | 0.00 | 37 | 1007.1 |
| 20260510003036 | 87 | 172 | 4.0 | 6.0 | 0.00 | 0.00 | 0.00 | 36 | 1007.3 |
| 20260510002531 | 87 | 178 | 6.0 | 7.0 | 0.00 | 0.00 | 0.00 | 35 | 1007.2 |
| 20260510002028 | 88 | 162 | 5.0 | 7.0 | 0.00 | 0.00 | 0.00 | 34 | 1007.1 |
| 20260510001526 | 88 | 166 | 5.0 | 7.0 | 0.00 | 0.00 | 0.00 | 34 | 1007.1 |
| 20260510001024 | 88 | 162 | 4.0 | 7.0 | 0.00 | 0.00 | 0.00 | 33 | 1007.1 |
| 20260510000518 | 89 | 156 | 6.0 | 10.0 | 0.00 | 0.00 | 0.00 | 33 | 1007.1 |
| 20260510000015 | 89 | 153 | 7.0 | 7.0 | 0.00 | 0.00 | 0.00 | 31 | 1007.0 |
| 20260509235507 | 89 | 164 | 3.0 | 3.0 | 0.00 | 0.00 | 0.00 | 30 | 1007.0 |
| 20260509235003 | 90 | 161 | 7.0 | 8.0 | 0.00 | 0.00 | 0.00 | 30 | 1007.0 |
| 20260509234500 | 90 | 207 | 3.0 | 3.0 | 0.00 | 0.00 | 0.00 | 30 | 1007.0 |
| 20260509233958 | 90 | 194 | 5.0 | 6.0 | 0.00 | 0.00 | 0.00 | 31 | 1007.1 |
| 20260509233455 | 90 | 193 | 2.0 | 4.0 | 0.00 | 0.00 | 0.00 | 31 | 1007.2 |
| 20260509232951 | 89 | 146 | 4.0 | 4.0 | 0.00 | 0.00 | 0.00 | 31 | 1007.1 |
| 20260509232449 | 90 | 168 | 4.0 | 7.0 | 0.00 | 0.00 | 0.00 | 31 | 1007.3 |
| 20260509231944 | 90 | 173 | 6.0 | 8.0 | 0.00 | 0.00 | 0.00 | 30 | 1007.0 |
| 20260509231441 | 90 | 158 | 4.0 | 4.0 | 0.00 | 0.00 | 0.00 | 31 | 1007.0 |
| 20260509230939 | 91 | 166 | 3.0 | 4.0 | 0.00 | 0.00 | 0.00 | 30 | 1006.9 |
| 20260509230436 | 91 | 112 | 2.0 | 3.0 | 0.00 | 0.00 | 0.00 | 29 | 1007.2 |
| 20260509225932 | 90 | 215 | 6.0 | 7.0 | 0.00 | 0.00 | 0.00 | 28 | 1007.3 |
| 20260509225428 | 91 | 151 | 6.0 | 8.0 | 0.00 | 0.00 | 0.00 | 28 | 1007.2 |
| 20260509224925 | 91 | 163 | 5.0 | 7.0 | 0.00 | 0.00 | 0.00 | 28 | 1007.2 |
| 20260509224420 | 90 | 171 | 4.0 | 4.0 | 0.00 | 0.00 | 0.00 | 28 | 1007.0 |
| 20260509223918 | 91 | 164 | 9.0 | 11.0 | 0.00 | 0.00 | 0.00 | 28 | 1007.0 |
| 20260509223414 | 91 | 194 | 3.0 | 3.0 | 0.00 | 0.00 | 0.00 | 28 | 1007.2 |
| 20260509222911 | 90 | 230 | 5.0 | 11.0 | 0.00 | 0.00 | 0.00 | 29 | 1007.0 |
| 20260509222407 | 91 | 180 | 6.0 | 11.0 | 0.00 | 0.00 | 0.00 | 29 | 1007.0 |
| 20260509221902 | 91 | 161 | 7.0 | 7.0 | 0.00 | 0.00 | 0.00 | 27 | 1007.0 |
| 20260509221359 | 91 | 178 | 8.0 | 8.0 | 0.00 | 0.00 | 0.00 | 27 | 1007.1 |
| 20260509220854 | 91 | 151 | 1.0 | 1.0 | 0.00 | 0.00 | 0.00 | 29 | 1007.1 |
| 20260509220345 | 91 | 174 | 3.0 | 4.0 | 0.00 | 0.00 | 0.00 | 28 | 1007.1 |
| 20260509215841 | 91 | 181 | 4.0 | 4.0 | 0.00 | 0.00 | 0.00 | 28 | 1007.2 |
| 20260509215338 | 91 | 171 | 6.0 | 10.0 | 0.00 | 0.00 | 0.00 | 29 | 1007.1 |
| 20260509214835 | 91 | 180 | 7.0 | 8.0 | 0.00 | 0.00 | 0.00 | 29 | 1007.5 |
| 20260509214332 | 90 | 157 | 2.0 | 3.0 | 0.00 | 0.00 | 0.00 | 30 | 1007.3 |
| 20260509213829 | 90 | 148 | 2.0 | 3.0 | 0.00 | 0.00 | 0.00 | 30 | 1007.3 |
| 20260509213324 | 91 | 168 | 6.0 | 7.0 | 0.00 | 0.00 | 0.00 | 31 | 1007.4 |
| 20260509212822 | 91 | 198 | 2.0 | 3.0 | 0.00 | 0.00 | 0.00 | 28 | 1007.5 |
| 20260509212319 | 90 | 206 | 4.0 | 6.0 | 0.00 | 0.00 | 0.00 | 30 | 1007.4 |
| 20260509211814 | 91 | 222 | 7.0 | 10.0 | 0.00 | 0.00 | 0.00 | 27 | 1007.6 |
| 20260509211310 | 90 | 142 | 4.0 | 6.0 | 0.00 | 0.00 | 0.00 | 29 | 1008.0 |
| 20260509210807 | 90 | 113 | 2.0 | 1.0 | 0.00 | 0.00 | 0.00 | 28 | 1007.8 |
| 20260509210300 | 90 | 75 | 4.0 | 6.0 | 0.00 | 0.00 | 0.00 | 29 | 1007.7 |
| 20260509205759 | 89 | 118 | 2.0 | 3.0 | 0.00 | 0.00 | 0.00 | 29 | 1007.8 |
| 20260509205254 | 90 | 175 | 4.0 | 4.0 | 0.00 | 0.00 | 0.00 | 28 | 1008.2 |
| 20260509204750 | 90 | 211 | 3.0 | 4.0 | 0.00 | 0.00 | 0.00 | 32 | 1008.4 |
| 20260509204247 | 90 | 179 | 9.0 | 11.0 | 0.00 | 0.00 | 0.00 | 31 | 1008.4 |
| 20260509203743 | 90 | 129 | 6.0 | 7.0 | 0.00 | 0.00 | 0.00 | 27 | 1008.4 |
| 20260509203241 | 90 | 190 | 4.0 | 7.0 | 0.00 | 0.00 | 0.00 | 32 | 1008.3 |
| 20260509202737 | 90 | 167 | 6.0 | 7.0 | 0.00 | 0.00 | 0.00 | 30 | 1008.5 |
| 20260509202232 | 89 | 175 | 6.0 | 11.0 | 0.00 | 0.00 | 0.00 | 30 | 1008.5 |
| 20260509201727 | 89 | 75 | 2.0 | 3.0 | 0.00 | 0.00 | 0.00 | 28 | 1008.5 |
| 20260509201224 | 88 | 142 | 6.0 | 7.0 | 0.00 | 0.00 | 0.00 | 27 | 1008.7 |
| 20260509200721 | 89 | 152 | 5.0 | 6.0 | 0.00 | 0.00 | 0.00 | 29 | 1008.7 |
| 20260509200216 | 89 | 169 | 8.0 | 10.0 | 0.00 | 0.00 | 0.00 | 30 | 1008.7 |
| 20260509195711 | 89 | 176 | 13.0 | 15.0 | 0.00 | 0.00 | 0.00 | 30 | 1008.9 |
| 20260509195206 | 88 | 258 | 5.0 | 7.0 | 0.00 | 0.00 | 0.00 | 31 | 1008.9 |
| 20260509194701 | 88 | 179 | 2.0 | 3.0 | 0.00 | 0.00 | 0.00 | 36 | 1008.9 |
| 20260509194158 | 89 | 225 | 4.0 | 4.0 | 0.00 | 0.00 | 0.00 | 32 | 1009.0 |
| 20260509193654 | 88 | 248 | 4.0 | 7.0 | 0.00 | 0.00 | 0.00 | 34 | 1008.9 |
| 20260509193150 | 89 | 186 | 4.0 | 6.0 | 0.00 | 0.00 | 0.00 | 37 | 1009.1 |
| 20260509192646 | 89 | 141 | 4.0 | 6.0 | 0.00 | 0.00 | 0.00 | 32 | 1009.1 |
| 20260509192141 | 89 | 165 | 6.0 | 7.0 | 0.00 | 0.00 | 0.00 | 35 | 1009.2 |
| 20260509191635 | 89 | 93 | 1.0 | 1.0 | 0.00 | 0.00 | 0.00 | 34 | 1009.1 |
| 20260509191132 | 88 | 170 | 6.0 | 7.0 | 0.00 | 0.00 | 0.00 | 32 | 1009.3 |
| 20260509190629 | 87 | 178 | 4.0 | 4.0 | 0.00 | 0.00 | 0.00 | 39 | 1009.4 |
| 20260509190127 | 88 | 178 | 7.0 | 10.0 | 0.00 | 0.00 | 0.00 | 35 | 1009.2 |
| 20260509185624 | 88 | 233 | 10.0 | 10.0 | 0.00 | 0.00 | 0.00 | 35 | 1009.5 |
| 20260509185119 | 87 | 253 | 7.0 | 8.0 | 0.00 | 0.00 | 0.00 | 34 | 1009.5 |
| 20260509184612 | 88 | 175 | 5.0 | 6.0 | 0.00 | 0.00 | 0.00 | 34 | 1009.3 |
| 20260509184108 | 88 | 222 | 6.0 | 7.0 | 0.00 | 0.00 | 0.00 | 31 | 1009.5 |
| 20260509183604 | 88 | 212 | 5.0 | 6.0 | 0.00 | 0.00 | 0.00 | 34 | 1009.6 |
| 20260509183100 | 87 | 144 | 0.0 | 0.0 | 0.00 | 0.00 | 0.00 | 34 | 1009.5 |
| 20260509182556 | 87 | 82 | 5.0 | 6.0 | 0.00 | 0.00 | 0.00 | 32 | 1009.9 |
| 20260509182053 | 87 | 189 | 0.0 | 0.0 | 0.00 | 0.00 | 0.00 | 29 | 1009.9 |
| 20260509181552 | 86 | 166 | 8.0 | 10.0 | 0.00 | 0.00 | 0.00 | 34 | 1009.7 |
| 20260509181049 | 86 | 258 | 5.0 | 6.0 | 0.00 | 0.00 | 0.00 | 37 | 1010.0 |
| 20260509180544 | 85 | 251 | 4.0 | 6.0 | 0.00 | 0.00 | 0.00 | 40 | 1010.0 |
| 20260509180042 | 86 | 219 | 10.0 | 11.0 | 0.00 | 0.00 | 0.00 | 37 | 1010.3 |
| 20260509175537 | 86 | 158 | 10.0 | 11.0 | 0.00 | 0.00 | 0.00 | 34 | 1010.1 |
| 20260509175034 | 86 | 241 | 4.0 | 6.0 | 0.00 | 0.00 | 0.00 | 40 | 1010.3 |
| 20260509174530 | 86 | 223 | 6.0 | 7.0 | 0.00 | 0.00 | 0.00 | 40 | 1010.0 |
| 20260509174026 | 85 | 213 | 4.0 | 6.0 | 0.00 | 0.00 | 0.00 | 40 | 1010.4 |
| 20260509173520 | 85 | 214 | 4.0 | 6.0 | 0.00 | 0.00 | 0.00 | 39 | 1010.4 |
| 20260509173018 | 85 | 168 | 4.0 | 6.0 | 0.00 | 0.00 | 0.00 | 41 | 1010.5 |
| 20260509172514 | 84 | 146 | 3.0 | 4.0 | 0.00 | 0.00 | 0.00 | 41 | 1010.4 |
| 20260509172009 | 83 | 160 | 4.0 | 6.0 | 0.00 | 0.00 | 0.00 | 41 | 1010.7 |
| 20260509171506 | 83 | 234 | 9.0 | 11.0 | 0.00 | 0.00 | 0.00 | 42 | 1010.6 |
| 20260509171002 | 83 | 256 | 8.0 | 10.0 | 0.00 | 0.00 | 0.00 | 46 | 1010.5 |
| 20260509170458 | 82 | 232 | 10.0 | 15.0 | 0.00 | 0.00 | 0.00 | 45 | 1010.5 |
| 20260509165953 | 82 | 170 | 4.0 | 6.0 | 0.00 | 0.00 | 0.00 | 46 | 1010.4 |
| 20260509165453 | 82 | 218 | 8.0 | 10.0 | 0.00 | 0.00 | 0.00 | 47 | 1010.5 |
| 20260509164949 | 82 | 223 | 7.0 | 10.0 | 0.00 | 0.00 | 0.00 | 46 | 1010.8 |
| 20260509164445 | 82 | 173 | 4.0 | 6.0 | 0.00 | 0.00 | 0.00 | 48 | 1010.7 |
| 20260509163941 | 82 | 201 | 7.0 | 8.0 | 0.00 | 0.00 | 0.00 | 47 | 1010.8 |
| 20260509163439 | 82 | 268 | 8.0 | 10.0 | 0.00 | 0.00 | 0.00 | 46 | 1010.6 |
| 20260509162938 | 81 | 237 | 12.0 | 13.0 | 0.00 | 0.00 | 0.00 | 45 | 1010.8 |
| 20260509162437 | 81 | 205 | 6.0 | 7.0 | 0.00 | 0.00 | 0.00 | 48 | 1010.9 |
| 20260509161932 | 80 | 247 | 10.0 | 11.0 | 0.00 | 0.00 | 0.00 | 47 | 1011.0 |
| 20260509161429 | 80 | 289 | 8.0 | 10.0 | 0.00 | 0.00 | 0.00 | 49 | 1010.9 |
| 20260509160924 | 80 | 245 | 6.0 | 7.0 | 0.00 | 0.00 | 0.00 | 52 | 1010.8 |
| 20260509160420 | 80 | 276 | 8.0 | 8.0 | 0.00 | 0.00 | 0.00 | 51 | 1011.0 |
| 20260509155916 | 80 | 249 | 7.0 | 8.0 | 0.00 | 0.00 | 0.00 | 52 | 1010.7 |
| 20260509155412 | 80 | 253 | 8.0 | 10.0 | 0.00 | 0.00 | 0.00 | 54 | 1010.8 |
| 20260509154908 | 79 | 264 | 7.0 | 7.0 | 0.00 | 0.00 | 0.00 | 55 | 1010.7 |
| 20260509154405 | 78 | 201 | 4.0 | 4.0 | 0.00 | 0.00 | 0.00 | 60 | 1010.8 |
| 20260509153902 | 78 | 277 | 9.0 | 10.0 | 0.00 | 0.00 | 0.00 | 60 | 1010.7 |
| 20260509153359 | 79 | 267 | 7.0 | 7.0 | 0.00 | 0.00 | 0.00 | 61 | 1010.8 |
| 20260509152856 | 78 | 257 | 6.0 | 7.0 | 0.00 | 0.00 | 0.00 | 62 | 1011.1 |
| 20260509152352 | 78 | 272 | 6.0 | 7.0 | 0.00 | 0.00 | 0.00 | 62 | 1010.7 |
| 20260509151849 | 77 | 265 | 8.0 | 10.0 | 0.00 | 0.00 | 0.00 | 63 | 1010.9 |
| 20260509151344 | 77 | 258 | 6.0 | 7.0 | 0.00 | 0.00 | 0.00 | 65 | 1010.7 |
| 20260509150844 | 77 | 292 | 9.0 | 11.0 | 0.00 | 0.00 | 0.00 | 65 | 1010.8 |
| 20260509150341 | 77 | 211 | 6.0 | 7.0 | 0.00 | 0.00 | 0.00 | 65 | 1010.7 |
| 20260509145838 | 76 | 285 | 5.0 | 7.0 | 0.00 | 0.00 | 0.00 | 68 | 1010.8 |
| 20260509145332 | 76 | 279 | 9.0 | 11.0 | 0.00 | 0.00 | 0.00 | 67 | 1010.9 |
| 20260509144829 | 75 | 280 | 5.0 | 6.0 | 0.00 | 0.00 | 0.00 | 69 | 1010.8 |
| 20260509144326 | 75 | 232 | 8.0 | 10.0 | 0.00 | 0.00 | 0.00 | 69 | 1010.9 |
| 20260509143823 | 75 | 266 | 9.0 | 11.0 | 0.00 | 0.00 | 0.00 | 70 | 1010.7 |
| 20260509143321 | 74 | 260 | 7.0 | 8.0 | 0.00 | 0.00 | 0.00 | 72 | 1010.9 |
| 20260509142817 | 74 | 242 | 10.0 | 11.0 | 0.00 | 0.00 | 0.00 | 72 | 1010.9 |
| 20260509142313 | 73 | 251 | 8.0 | 10.0 | 0.00 | 0.00 | 0.00 | 74 | 1010.7 |
| 20260509141808 | 73 | 265 | 5.0 | 6.0 | 0.00 | 0.00 | 0.00 | 76 | 1010.7 |
| 20260509141306 | 72 | 236 | 7.0 | 7.0 | 0.00 | 0.00 | 0.00 | 77 | 1010.7 |
| 20260509140802 | 72 | 272 | 9.0 | 10.0 | 0.00 | 0.00 | 0.00 | 76 | 1010.7 |
| 20260509140259 | 72 | 279 | 9.0 | 10.0 | 0.00 | 0.00 | 0.00 | 78 | 1010.9 |
| 20260509135757 | 71 | 277 | 8.0 | 8.0 | 0.00 | 0.00 | 0.00 | 79 | 1010.7 |
| 20260509135254 | 71 | 237 | 7.0 | 8.0 | 0.00 | 0.00 | 0.00 | 80 | 1010.7 |
| 20260509134752 | 70 | 268 | 7.0 | 7.0 | 0.00 | 0.00 | 0.00 | 83 | 1010.6 |
| 20260509134249 | 69 | 259 | 9.0 | 10.0 | 0.00 | 0.00 | 0.00 | 84 | 1010.5 |
| 20260509133746 | 69 | 252 | 8.0 | 8.0 | 0.00 | 0.00 | 0.00 | 85 | 1010.7 |
| 20260509133242 | 68 | 245 | 8.0 | 8.0 | 0.00 | 0.00 | 0.00 | 87 | 1010.9 |
| 20260509132741 | 67 | 250 | 6.0 | 7.0 | 0.00 | 0.00 | 0.00 | 88 | 1010.8 |
| 20260509132240 | 67 | 256 | 7.0 | 8.0 | 0.00 | 0.00 | 0.00 | 89 | 1010.7 |
| 20260509131736 | 67 | 247 | 4.0 | 4.0 | 0.00 | 0.00 | 0.00 | 89 | 1010.6 |
| 20260509131232 | 67 | 262 | 4.0 | 4.0 | 0.00 | 0.00 | 0.00 | 90 | 1010.7 |
| 20260509130729 | 66 | 244 | 6.0 | 8.0 | 0.00 | 0.00 | 0.00 | 91 | 1010.6 |
| 20260509130224 | 66 | 244 | 6.0 | 6.0 | 0.00 | 0.00 | 0.00 | 91 | 1010.8 |
| 20260509125721 | 66 | 257 | 4.0 | 4.0 | 0.00 | 0.00 | 0.00 | 93 | 1010.6 |
| 20260509125218 | 65 | 232 | 4.0 | 4.0 | 0.00 | 0.00 | 0.00 | 94 | 1010.7 |
| 20260509124715 | 64 | 258 | 3.0 | 4.0 | 0.00 | 0.00 | 0.00 | 94 | 1010.4 |
| 20260509124211 | 64 | 266 | 2.0 | 3.0 | 0.00 | 0.00 | 0.00 | 95 | 1010.2 |
| 20260509123710 | 63 | 277 | 2.0 | 3.0 | 0.00 | 0.00 | 0.00 | 95 | 1010.3 |
| 20260509123206 | 63 | 263 | 3.0 | 4.0 | 0.00 | 0.00 | 0.00 | 95 | 1010.2 |
| 20260509122702 | 62 | 279 | 2.0 | 3.0 | 0.00 | 0.00 | 0.00 | 95 | 1010.2 |
| 20260509122159 | 62 | 271 | 3.0 | 3.0 | 0.00 | 0.00 | 0.00 | 95 | 1010.0 |
| 20260509121655 | 62 | 269 | 3.0 | 4.0 | 0.00 | 0.00 | 0.00 | 95 | 1010.0 |
| 20260509121154 | 62 | 256 | 3.0 | 4.0 | 0.00 | 0.00 | 0.00 | 95 | 1009.9 |
| 20260509120652 | 62 | 256 | 3.0 | 3.0 | 0.00 | 0.00 | 0.00 | 95 | 1010.1 |
| 20260509120149 | 62 | 239 | 2.0 | 3.0 | 0.00 | 0.00 | 0.00 | 95 | 1010.2 |
| 20260509115646 | 62 | 216 | 2.0 | 1.0 | 0.00 | 0.00 | 0.00 | 95 | 1010.0 |
| 20260509115144 | 62 | 214 | 1.0 | 1.0 | 0.00 | 0.00 | 0.00 | 95 | 1010.2 |
| 20260509114642 | 62 | 221 | 1.0 | 1.0 | 0.00 | 0.00 | 0.00 | 95 | 1010.1 |
| 20260509114141 | 62 | 225 | 3.0 | 3.0 | 0.00 | 0.00 | 0.00 | 95 | 1010.0 |
| 20260509113639 | 62 | 202 | 1.0 | 1.0 | 0.00 | 0.00 | 0.00 | 95 | 1009.9 |
| 20260509113136 | 62 | 219 | 2.0 | 3.0 | 0.00 | 0.00 | 0.00 | 95 | 1009.9 |
| 20260509112632 | 62 | 224 | 3.0 | 3.0 | 0.00 | 0.00 | 0.00 | 94 | 1009.9 |
| 20260509112129 | 62 | 213 | 3.0 | 3.0 | 0.00 | 0.00 | 0.00 | 95 | 1010.1 |
| 20260509111626 | 62 | 162 | 1.0 | 1.0 | 0.00 | 0.00 | 0.00 | 95 | 1010.3 |
| 20260509111123 | 61 | 219 | 0.0 | 0.0 | 0.00 | 0.00 | 0.00 | 94 | 1009.7 |
| 20260509110620 | 62 | 217 | 3.0 | 3.0 | 0.00 | 0.00 | 0.00 | 94 | 1009.9 |
| 20260509110117 | 62 | 125 | 2.0 | 1.0 | 0.00 | 0.00 | 0.00 | 94 | 1009.7 |
| 20260509105615 | 62 | 125 | 0.0 | 0.0 | 0.00 | 0.00 | 0.00 | 94 | 1010.0 |
| 20260509105113 | 62 | 125 | 1.0 | 1.0 | 0.00 | 0.00 | 0.00 | 93 | 1010.0 |
| 20260509104609 | 62 | 124 | 1.0 | 0.0 | 0.00 | 0.00 | 0.00 | 93 | 1010.0 |
| 20260509104108 | 63 | 123 | 0.0 | 0.0 | 0.00 | 0.00 | 0.00 | 92 | 1010.0 |
| 20260509103604 | 63 | 163 | 0.0 | 0.0 | 0.00 | 0.00 | 0.00 | 91 | 1009.7 |
| 20260509103102 | 64 | 164 | 1.0 | 1.0 | 0.00 | 0.00 | 0.00 | 91 | 1009.9 |
| 20260509102559 | 64 | 163 | 0.0 | 0.0 | 0.00 | 0.00 | 0.00 | 90 | 1009.7 |
| 20260509102056 | 64 | 169 | 2.0 | 3.0 | 0.00 | 0.00 | 0.00 | 90 | 1009.9 |
| 20260509101552 | 64 | 170 | 1.0 | 1.0 | 0.00 | 0.00 | 0.00 | 90 | 1009.6 |
| 20260509101049 | 65 | 176 | 2.0 | 1.0 | 0.00 | 0.00 | 0.00 | 89 | 1009.9 |
| 20260509100546 | 65 | 169 | 3.0 | 3.0 | 0.00 | 0.00 | 0.00 | 88 | 1009.7 |
| 20260509100044 | 65 | 187 | 3.0 | 3.0 | 0.00 | 0.00 | 0.00 | 88 | 1009.6 |
| 20260509095540 | 65 | 188 | 1.0 | 1.0 | 0.00 | 0.00 | 0.00 | 88 | 1009.7 |
| 20260509095038 | 65 | 195 | 0.0 | 0.0 | 0.00 | 0.00 | 0.00 | 87 | 1009.9 |
| 20260509094533 | 65 | 157 | 4.0 | 4.0 | 0.00 | 0.00 | 0.00 | 87 | 1009.9 |
| 20260509094031 | 65 | 179 | 5.0 | 7.0 | 0.00 | 0.00 | 0.00 | 87 | 1010.0 |
| 20260509093529 | 65 | 159 | 4.0 | 4.0 | 0.00 | 0.00 | 0.00 | 88 | 1010.2 |
| 20260509093026 | 65 | 119 | 0.0 | 0.0 | 0.00 | 0.00 | 0.00 | 89 | 1010.4 |
| 20260509092524 | 65 | 61 | 1.0 | 1.0 | 0.00 | 0.00 | 0.00 | 89 | 1010.4 |
| 20260509092023 | 65 | 151 | 0.0 | 0.0 | 0.00 | 0.00 | 0.00 | 89 | 1010.2 |
| 20260509091520 | 65 | 152 | 2.0 | 1.0 | 0.00 | 0.00 | 0.00 | 88 | 1010.6 |
| 20260509091016 | 65 | 85 | 1.0 | 1.0 | 0.00 | 0.00 | 0.00 | 88 | 1010.7 |
| 20260509090514 | 65 | 152 | 2.0 | 3.0 | 0.00 | 0.00 | 0.00 | 88 | 1010.6 |
| 20260509090011 | 65 | 160 | 2.0 | 3.0 | 0.00 | 0.00 | 0.00 | 88 | 1010.7 |
| 20260509085508 | 65 | 172 | 3.0 | 4.0 | 0.00 | 0.00 | 0.00 | 88 | 1010.7 |
| 20260509085004 | 66 | 145 | 3.0 | 4.0 | 0.00 | 0.00 | 0.00 | 88 | 1010.8 |
| 20260509084501 | 65 | 160 | 4.0 | 4.0 | 0.00 | 0.00 | 0.00 | 90 | 1010.5 |
| 20260509083958 | 65 | 132 | 2.0 | 4.0 | 0.00 | 0.00 | 0.00 | 94 | 1010.8 |
| 20260509083456 | 65 | 76 | 0.0 | 0.0 | 0.00 | 0.00 | 0.00 | 95 | 1010.7 |
| 20260509082952 | 65 | 74 | 6.0 | 7.0 | 0.00 | 0.00 | 0.00 | 95 | 1011.1 |
| 20260509082449 | 65 | 56 | 7.0 | 8.0 | 0.00 | 0.00 | 0.00 | 95 | 1011.3 |
| 20260509081946 | 66 | 68 | 6.0 | 8.0 | 0.00 | 0.00 | 0.00 | 95 | 1011.3 |
| 20260509081444 | 66 | 38 | 5.0 | 6.0 | 0.00 | 0.00 | 0.00 | 95 | 1011.2 |
| 20260509080941 | 66 | 50 | 2.0 | 3.0 | 0.00 | 0.00 | 0.00 | 95 | 1011.0 |
| 20260509080439 | 66 | 68 | 1.0 | 1.0 | 0.00 | 0.00 | 0.00 | 95 | 1010.9 |
| 20260509075937 | 66 | 69 | 0.0 | 0.0 | 0.00 | 0.00 | 0.00 | 95 | 1011.0 |
| 20260509075433 | 66 | 68 | 0.0 | 0.0 | 0.00 | 0.00 | 0.00 | 95 | 1011.1 |
| 20260509074932 | 66 | 26 | 3.0 | 4.0 | 0.00 | 0.00 | 0.00 | 95 | 1011.2 |
| 20260509074428 | 66 | 95 | 1.0 | 1.0 | 0.00 | 0.00 | 0.00 | 95 | 1011.0 |
| 20260509073925 | 66 | 51 | 3.0 | 4.0 | 0.00 | 0.00 | 0.00 | 95 | 1011.2 |
| 20260509073421 | 66 | 33 | 3.0 | 3.0 | 0.00 | 0.00 | 0.00 | 95 | 1011.2 |
| 20260509072918 | 66 | 57 | 3.0 | 4.0 | 0.00 | 0.00 | 0.00 | 95 | 1011.0 |
| 20260509072415 | 65 | 39 | 3.0 | 4.0 | 0.00 | 0.00 | 0.00 | 95 | 1011.1 |
| 20260509071911 | 65 | 62 | 2.0 | 1.0 | 0.00 | 0.00 | 0.00 | 95 | 1010.6 |
| 20260509071408 | 65 | 346 | 2.0 | 1.0 | 0.00 | 0.00 | 0.00 | 95 | 1010.4 |
| 20260509070906 | 64 | 345 | 0.0 | 0.0 | 0.00 | 0.00 | 0.00 | 95 | 1010.2 |
| 20260509070402 | 64 | 22 | 7.0 | 7.0 | 0.00 | 0.00 | 0.00 | 95 | 1010.5 |
| 20260509065858 | 64 | 177 | 2.0 | 3.0 | 0.00 | 0.00 | 0.00 | 95 | 1009.5 |
| 20260509065354 | 64 | 171 | 0.0 | 0.0 | 0.00 | 0.00 | 0.00 | 95 | 1009.2 |
| 20260509064850 | 64 | 171 | 0.0 | 0.0 | 0.00 | 0.00 | 0.00 | 95 | 1009.1 |
| 20260509064348 | 64 | 171 | 1.0 | 1.0 | 0.00 | 0.00 | 0.00 | 95 | 1009.1 |
| 20260509063846 | 64 | 171 | 0.0 | 0.0 | 0.00 | 0.00 | 0.00 | 95 | 1009.1 |
| 20260509063341 | 64 | 171 | 0.0 | 1.0 | 0.00 | 0.00 | 0.00 | 95 | 1009.2 |
| 20260509062839 | 64 | 171 | 0.0 | 1.0 | 0.00 | 0.00 | 0.00 | 94 | 1009.4 |
| 20260509062336 | 64 | 171 | 2.0 | 3.0 | 0.00 | 0.00 | 0.00 | 94 | 1009.0 |
| 20260509061833 | 64 | 170 | 2.0 | 3.0 | 0.00 | 0.00 | 0.00 | 95 | 1008.8 |
| 20260509061331 | 64 | 172 | 0.0 | 1.0 | 0.00 | 0.00 | 0.00 | 94 | 1008.7 |
| 20260509060828 | 64 | 172 | 1.0 | 1.0 | 0.00 | 0.00 | 0.00 | 94 | 1008.7 |
| 20260509060325 | 65 | 172 | 1.0 | 1.0 | 0.00 | 0.00 | 0.00 | 94 | 1008.8 |
| 20260509055820 | 64 | 177 | 3.0 | 3.0 | 0.00 | 0.00 | 0.00 | 94 | 1009.0 |
| 20260509055316 | 64 | 178 | 0.0 | 0.0 | 0.00 | 0.00 | 0.00 | 94 | 1008.8 |
| 20260509054813 | 64 | 178 | 0.0 | 0.0 | 0.00 | 0.00 | 0.00 | 94 | 1008.9 |
| 20260509054309 | 64 | 176 | 0.0 | 0.0 | 0.00 | 0.00 | 0.00 | 94 | 1008.8 |
| 20260509053808 | 62 | 174 | 2.0 | 1.0 | 0.00 | 0.00 | 0.00 | 94 | 1008.8 |
| 20260509053305 | 63 | 163 | 0.0 | 0.0 | 0.00 | 0.00 | 0.00 | 92 | 1008.9 |
| 20260509052803 | 62 | 163 | 0.0 | 0.0 | 0.00 | 0.00 | 0.00 | 93 | 1008.8 |
| 20260509052300 | 62 | 163 | 0.0 | 0.0 | 0.00 | 0.00 | 0.00 | 92 | 1008.9 |
| 20260509051758 | 64 | 163 | 0.0 | 0.0 | 0.00 | 0.00 | 0.00 | 92 | 1008.7 |
| 20260509051256 | 65 | 162 | 0.0 | 0.0 | 0.00 | 0.00 | 0.00 | 92 | 1008.9 |
| 20260509050752 | 65 | 162 | 0.0 | 0.0 | 0.00 | 0.00 | 0.00 | 92 | 1008.8 |
| 20260509050248 | 65 | 162 | 0.0 | 0.0 | 0.00 | 0.00 | 0.00 | 92 | 1008.7 |
| 20260509045746 | 66 | 162 | 0.0 | 0.0 | 0.00 | 0.00 | 0.00 | 92 | 1008.8 |
| 20260509045242 | 66 | 162 | 0.0 | 0.0 | 0.00 | 0.00 | 0.00 | 91 | 1009.0 |
| 20260509044740 | 66 | 162 | 0.0 | 0.0 | 0.00 | 0.00 | 0.00 | 91 | 1009.1 |
| 20260509044238 | 67 | 163 | 0.0 | 0.0 | 0.00 | 0.00 | 0.00 | 91 | 1009.1 |
| 20260509043734 | 67 | 178 | 3.0 | 3.0 | 0.00 | 0.00 | 0.00 | 91 | 1009.0 |
| 20260509043230 | 67 | 168 | 3.0 | 4.0 | 0.00 | 0.00 | 0.00 | 92 | 1009.2 |
| 20260509042726 | 67 | 164 | 1.0 | 3.0 | 0.00 | 0.00 | 0.00 | 91 | 1009.1 |
| 20260509042222 | 67 | 164 | 0.0 | 0.0 | 0.00 | 0.00 | 0.00 | 90 | 1009.0 |
| 20260509041719 | 67 | 164 | 1.0 | 1.0 | 0.00 | 0.00 | 0.00 | 90 | 1009.1 |
| 20260509041217 | 67 | 168 | 2.0 | 1.0 | 0.00 | 0.00 | 0.00 | 90 | 1009.3 |
| 20260509040715 | 67 | 168 | 0.0 | 0.0 | 0.00 | 0.00 | 0.00 | 89 | 1009.2 |
| 20260509040211 | 68 | 168 | 0.0 | 0.0 | 0.00 | 0.00 | 0.00 | 89 | 1009.0 |
| 20260509035708 | 68 | 171 | 2.0 | 3.0 | 0.00 | 0.00 | 0.00 | 88 | 1009.0 |
| 20260509035205 | 68 | 172 | 2.0 | 4.0 | 0.00 | 0.00 | 0.00 | 88 | 1009.0 |
| 20260509034702 | 68 | 189 | 1.0 | 1.0 | 0.00 | 0.00 | 0.00 | 88 | 1009.0 |
| 20260509034200 | 69 | 150 | 1.0 | 1.0 | 0.00 | 0.00 | 0.00 | 87 | 1008.9 |